| time (UTC) | temp F | wind direction | speed knots | gust knots | rain 1hr in | rain 24hr in | rain mn in | humidity % | barometer mb |
| 20260506070300 | 43 | 39 | 0.0 | 1.7 | 0.00 | 0.00 | 0.00 | 63 | 1010.5 |
| 20260506061754 | 45 | 28 | 1.7 | 3.5 | 0.00 | 0.00 | 0.00 | 55 | 1010.9 |
| 20260506061522 | 45 | 89 | 0.0 | 3.5 | 0.00 | 0.00 | 0.00 | 55 | 1010.5 |
| 20260506060753 | 45 | 23 | 3.5 | 3.5 | 0.00 | 0.00 | 0.00 | 56 | 1010.5 |
| 20260506060254 | 45 | 33 | 2.6 | 3.5 | 0.00 | 0.00 | 0.00 | 56 | 1010.5 |
| 20260506051248 | 46 | 118 | 0.0 | 1.7 | 0.00 | 0.00 | 0.00 | 60 | 1010.2 |
| 20260506050751 | 46 | 38 | 0.0 | 1.7 | 0.00 | 0.00 | 0.00 | 59 | 1010.2 |
| 20260506050249 | 46 | 304 | 0.0 | 0.0 | 0.00 | 0.00 | 0.00 | 59 | 1010.2 |
| 20260506044842 | 47 | 355 | 0.9 | 2.6 | 0.00 | 0.00 | 0.00 | 59 | 1009.8 |
| 20260506043745 | 47 | 15 | 0.9 | 2.6 | 0.00 | 0.00 | 0.00 | 59 | 1009.8 |
| 20260506043245 | 47 | 11 | 0.9 | 1.7 | 0.00 | 0.00 | 0.00 | 58 | 1009.8 |
| 20260506042744 | 47 | 55 | 0.0 | 0.9 | 0.00 | 0.00 | 0.00 | 66 | 1010.2 |
| 20260506042503 | 47 | 124 | 0.0 | 0.9 | 0.00 | 0.00 | 0.00 | 63 | 1010.2 |
| 20260506042012 | 48 | 124 | 0.0 | 0.9 | 0.00 | 0.00 | 0.00 | 56 | 1010.2 |
| 20260506041244 | 48 | 72 | 0.0 | 1.7 | 0.00 | 0.00 | 0.00 | 59 | 1010.2 |
| 20260506040741 | 48 | 66 | 0.0 | 1.7 | 0.00 | 0.00 | 0.00 | 57 | 1010.2 |
| 20260506040243 | 48 | 55 | 0.9 | 1.7 | 0.00 | 0.00 | 0.00 | 57 | 1010.2 |
| 20260506035741 | 49 | 108 | 1.7 | 1.7 | 0.00 | 0.00 | 0.00 | 54 | 1010.2 |
| 20260506035242 | 49 | 17 | 0.0 | 1.7 | 0.00 | 0.00 | 0.00 | 53 | 1009.8 |
| 20260506034738 | 49 | 0 | 0.9 | 1.7 | 0.00 | 0.00 | 0.00 | 53 | 1009.8 |
| 20260506034511 | 49 | 22 | 0.0 | 2.6 | 0.00 | 0.00 | 0.00 | 54 | 1009.8 |
| 20260506034004 | 49 | 333 | 1.7 | 2.6 | 0.00 | 0.00 | 0.00 | 54 | 1009.8 |
| 20260506033239 | 49 | 64 | 0.0 | 1.7 | 0.00 | 0.00 | 0.00 | 54 | 1009.8 |
| 20260506033003 | 49 | 141 | 0.0 | 1.7 | 0.00 | 0.00 | 0.00 | 52 | 1009.8 |
| 20260506032242 | 49 | 59 | 0.9 | 3.5 | 0.00 | 0.00 | 0.00 | 54 | 1009.8 |
| 20260506031737 | 49 | 42 | 1.7 | 3.5 | 0.00 | 0.00 | 0.00 | 56 | 1009.4 |
| 20260506031236 | 48 | 40 | 1.7 | 2.6 | 0.00 | 0.00 | 0.00 | 54 | 1009.4 |
| 20260506030739 | 48 | 4 | 0.9 | 2.6 | 0.00 | 0.00 | 0.00 | 60 | 1009.4 |
| 20260506030238 | 47 | 23 | 0.9 | 1.7 | 0.00 | 0.00 | 0.00 | 68 | 1009.4 |
| 20260506025734 | 47 | 87 | 0.9 | 1.7 | 0.00 | 0.00 | 0.00 | 67 | 1009.4 |
| 20260506025235 | 47 | 53 | 0.9 | 1.7 | 0.00 | 0.00 | 0.00 | 65 | 1009.4 |
| 20260506024734 | 48 | 68 | 1.7 | 1.7 | 0.00 | 0.00 | 0.00 | 64 | 1009.1 |
| 20260506024235 | 48 | 66 | 0.9 | 1.7 | 0.00 | 0.00 | 0.00 | 61 | 1009.1 |
| 20260506023732 | 48 | 32 | 0.0 | 1.7 | 0.00 | 0.00 | 0.00 | 59 | 1009.4 |
| 20260506023233 | 48 | 135 | 0.0 | 0.9 | 0.00 | 0.00 | 0.00 | 62 | 1009.1 |
| 20260506022735 | 48 | 145 | 0.9 | 0.9 | 0.00 | 0.00 | 0.00 | 59 | 1009.1 |
| 20260506022231 | 48 | 89 | 0.0 | 0.9 | 0.00 | 0.00 | 0.00 | 62 | 1009.1 |
| 20260506021730 | 48 | 49 | 0.0 | 0.9 | 0.00 | 0.00 | 0.00 | 62 | 1009.1 |
| 20260506021233 | 49 | 58 | 0.0 | 0.9 | 0.00 | 0.00 | 0.00 | 59 | 1009.1 |
| 20260506020729 | 49 | 135 | 0.0 | 0.9 | 0.00 | 0.00 | 0.00 | 64 | 1009.1 |
| 20260506020230 | 49 | 134 | 0.0 | 0.9 | 0.00 | 0.00 | 0.00 | 59 | 1008.7 |
| 20260506015734 | 49 | 77 | 0.0 | 0.9 | 0.00 | 0.00 | 0.00 | 58 | 1008.7 |
| 20260506015233 | 49 | 39 | 0.0 | 0.9 | 0.00 | 0.00 | 0.00 | 55 | 1008.7 |
| 20260506014728 | 50 | 55 | 0.0 | 1.7 | 0.00 | 0.00 | 0.00 | 56 | 1008.7 |
| 20260506014229 | 50 | 92 | 0.9 | 1.7 | 0.00 | 0.00 | 0.00 | 53 | 1008.7 |
| 20260506013727 | 50 | 124 | 0.0 | 0.9 | 0.00 | 0.00 | 0.00 | 52 | 1008.7 |
| 20260506013233 | 51 | 66 | 0.0 | 0.9 | 0.00 | 0.00 | 0.00 | 57 | 1008.4 |
| 20260506012725 | 51 | 55 | 0.0 | 0.9 | 0.00 | 0.00 | 0.00 | 53 | 1008.4 |
| 20260506012227 | 51 | 53 | 0.0 | 0.9 | 0.00 | 0.00 | 0.00 | 51 | 1008.0 |
| 20260506011949 | 51 | 147 | 0.0 | 0.9 | 0.00 | 0.00 | 0.00 | 49 | 1008.0 |
| 20260506011226 | 51 | 67 | 0.0 | 1.7 | 0.00 | 0.00 | 0.00 | 48 | 1008.0 |
| 20260506010736 | 51 | 91 | 0.0 | 1.7 | 0.00 | 0.00 | 0.00 | 51 | 1008.4 |
| 20260506010224 | 52 | 55 | 0.0 | 1.7 | 0.00 | 0.00 | 0.00 | 47 | 1008.0 |
| 20260506005722 | 52 | 54 | 0.0 | 1.7 | 0.00 | 0.00 | 0.00 | 46 | 1008.0 |
| 20260506005222 | 52 | 166 | 0.9 | 1.7 | 0.00 | 0.00 | 0.00 | 44 | 1008.0 |
| 20260506004721 | 52 | 357 | 0.0 | 2.6 | 0.00 | 0.00 | 0.00 | 44 | 1008.0 |
| 20260506004442 | 53 | 38 | 0.0 | 2.6 | 0.00 | 0.00 | 0.00 | 45 | 1008.0 |
| 20260506003720 | 53 | 320 | 0.0 | 1.7 | 0.00 | 0.00 | 0.00 | 43 | 1007.7 |
| 20260506003220 | 53 | 17 | 0.9 | 2.6 | 0.00 | 0.00 | 0.00 | 43 | 1007.7 |
| 20260506002718 | 53 | 315 | 0.0 | 3.5 | 0.00 | 0.00 | 0.00 | 45 | 1007.7 |
| 20260506002223 | 53 | 75 | 0.0 | 3.5 | 0.00 | 0.00 | 0.00 | 44 | 1007.7 |
| 20260506001717 | 53 | 47 | 1.7 | 2.6 | 0.00 | 0.00 | 0.00 | 44 | 1007.7 |
| 20260506001219 | 53 | 317 | 2.6 | 2.6 | 0.00 | 0.00 | 0.00 | 43 | 1007.7 |
| 20260506000944 | 53 | 38 | 0.0 | 2.6 | 0.00 | 0.00 | 0.00 | 43 | 1007.7 |
| 20260506000227 | 54 | 278 | 0.0 | 3.5 | 0.00 | 0.00 | 0.00 | 45 | 1007.7 |
| 20260506000219 | 53 | 327 | 0.9 | 3.5 | 0.00 | 0.00 | 0.00 | 43 | 1007.7 |
| 20260505235217 | 54 | 40 | 0.0 | 4.3 | 0.00 | 0.00 | 0.00 | 43 | 1007.7 |
| 20260505234715 | 54 | 138 | 4.3 | 4.3 | 0.00 | 0.00 | 0.00 | 43 | 1007.7 |
| 20260505234214 | 54 | 37 | 1.7 | 3.5 | 0.00 | 0.00 | 0.00 | 43 | 1007.7 |
| 20260505233713 | 54 | 319 | 0.0 | 3.5 | 0.00 | 0.00 | 0.00 | 43 | 1007.7 |
| 20260505233214 | 54 | 85 | 1.7 | 5.2 | 0.00 | 0.00 | 0.00 | 42 | 1007.7 |
| 20260505232714 | 54 | 339 | 1.7 | 5.2 | 0.00 | 0.00 | 0.00 | 41 | 1007.7 |
| 20260505232213 | 55 | 317 | 3.5 | 4.3 | 0.00 | 0.00 | 0.00 | 42 | 1007.7 |
| 20260505231712 | 54 | 295 | 1.7 | 3.5 | 0.00 | 0.00 | 0.00 | 41 | 1007.7 |
| 20260505231211 | 54 | 150 | 0.0 | 7.0 | 0.00 | 0.00 | 0.00 | 42 | 1007.7 |
| 20260505230711 | 54 | 176 | 0.9 | 7.0 | 0.00 | 0.00 | 0.00 | 44 | 1007.7 |
| 20260505230210 | 54 | 35 | 1.7 | 7.0 | 0.00 | 0.00 | 0.00 | 42 | 1007.7 |
| 20260505225709 | 54 | 191 | 2.6 | 7.0 | 0.00 | 0.00 | 0.00 | 44 | 1007.7 |
| 20260505225210 | 54 | 319 | 0.9 | 4.3 | 0.00 | 0.00 | 0.00 | 40 | 1008.0 |
| 20260505224711 | 54 | 302 | 4.3 | 4.3 | 0.00 | 0.00 | 0.00 | 40 | 1008.0 |
| 20260505224222 | 54 | 60 | 0.0 | 4.3 | 0.00 | 0.00 | 0.00 | 43 | 1008.0 |
| 20260505223710 | 54 | 243 | 1.7 | 4.3 | 0.00 | 0.00 | 0.00 | 39 | 1008.4 |
| 20260505223208 | 54 | 335 | 1.7 | 5.2 | 0.00 | 0.00 | 0.00 | 39 | 1008.0 |
| 20260505222705 | 54 | 196 | 1.7 | 7.8 | 0.00 | 0.01 | 0.00 | 41 | 1008.0 |
| 20260505222218 | 54 | 334 | 1.7 | 5.2 | 0.00 | 0.11 | 0.00 | 40 | 1008.0 |
| 20260505222209 | 54 | 314 | 0.9 | 7.8 | 0.00 | 0.03 | 0.00 | 40 | 1008.0 |
| 20260505221219 | 54 | 280 | 1.7 | 5.2 | 0.00 | 0.11 | 0.00 | 41 | 1008.0 |
| 20260505220704 | 54 | 293 | 2.6 | 4.3 | 0.00 | 0.11 | 0.00 | 38 | 1008.0 |
| 20260505220204 | 54 | 337 | 1.7 | 5.2 | 0.00 | 0.11 | 0.00 | 39 | 1008.0 |
| 20260505215701 | 54 | 297 | 0.0 | 5.2 | 0.00 | 0.11 | 0.00 | 40 | 1008.0 |
| 20260505215424 | 54 | 258 | 1.7 | 5.2 | 0.00 | 0.11 | 0.00 | 37 | 1008.4 |
| 20260505214703 | 54 | 208 | 1.7 | 5.2 | 0.00 | 0.11 | 0.00 | 39 | 1008.4 |
| 20260505214202 | 54 | 296 | 1.7 | 5.2 | 0.00 | 0.11 | 0.00 | 40 | 1008.4 |
| 20260505213700 | 54 | 311 | 2.6 | 6.1 | 0.00 | 0.11 | 0.00 | 38 | 1008.0 |
| 20260505213201 | 54 | 216 | 1.7 | 6.1 | 0.00 | 0.11 | 0.00 | 38 | 1008.0 |
| 20260505213149 | 54 | 320 | 0.0 | 5.2 | 0.00 | 0.11 | 0.00 | 38 | 1008.0 |
| 20260505212425 | 54 | 321 | 0.9 | 5.2 | 0.00 | 0.11 | 0.00 | 36 | 1008.0 |
| 20260505211659 | 55 | 176 | 1.7 | 5.2 | 0.00 | 0.11 | 0.00 | 40 | 1008.0 |
| 20260505211159 | 55 | 220 | 2.6 | 6.1 | 0.00 | 0.11 | 0.00 | 38 | 1008.0 |
| 20260505210918 | 55 | 263 | 0.9 | 7.0 | 0.00 | 0.11 | 0.00 | 38 | 1008.0 |
| 20260505210157 | 55 | 177 | 2.6 | 7.0 | 0.00 | 0.11 | 0.00 | 38 | 1008.0 |
| 20260505205656 | 55 | 309 | 1.7 | 5.2 | 0.00 | 0.11 | 0.00 | 39 | 1008.0 |
| 20260505205156 | 54 | 221 | 1.7 | 6.1 | 0.00 | 0.11 | 0.00 | 38 | 1008.0 |
| 20260505204654 | 54 | 253 | 3.5 | 6.1 | 0.00 | 0.11 | 0.00 | 39 | 1008.0 |
| 20260505204157 | 54 | 259 | 3.5 | 5.2 | 0.00 | 0.11 | 0.00 | 36 | 1008.0 |
| 20260505203655 | 54 | 351 | 2.6 | 4.3 | 0.00 | 0.11 | 0.00 | 38 | 1008.4 |
| 20260505203154 | 54 | 123 | 1.7 | 7.0 | 0.00 | 0.11 | 0.00 | 39 | 1008.4 |
| 20260505202654 | 54 | 257 | 5.2 | 7.0 | 0.00 | 0.11 | 0.00 | 39 | 1008.4 |
| 20260505202155 | 54 | 237 | 2.6 | 5.2 | 0.00 | 0.11 | 0.00 | 40 | 1008.4 |
| 20260505201653 | 54 | 336 | 1.7 | 5.2 | 0.00 | 0.11 | 0.00 | 38 | 1008.4 |
| 20260505201152 | 54 | 86 | 1.7 | 9.6 | 0.00 | 0.11 | 0.00 | 37 | 1008.7 |
| 20260505200651 | 54 | 185 | 0.0 | 9.6 | 0.00 | 0.11 | 0.00 | 36 | 1008.7 |
| 20260505200152 | 54 | 138 | 0.0 | 4.3 | 0.00 | 0.11 | 0.00 | 34 | 1008.4 |
| 20260505195649 | 54 | 134 | 2.6 | 7.0 | 0.00 | 0.11 | 0.00 | 35 | 1008.4 |
| 20260505195414 | 55 | 330 | 1.7 | 7.0 | 0.00 | 0.11 | 0.00 | 33 | 1008.7 |
| 20260505194650 | 55 | 244 | 0.0 | 7.0 | 0.00 | 0.11 | 0.00 | 34 | 1008.7 |
| 20260505194412 | 55 | 269 | 2.6 | 7.0 | 0.00 | 0.11 | 0.00 | 34 | 1008.4 |
| 20260505193648 | 55 | 339 | 1.7 | 7.0 | 0.00 | 0.11 | 0.00 | 34 | 1008.4 |
| 20260505193408 | 55 | 328 | 1.7 | 6.1 | 0.00 | 0.11 | 0.00 | 34 | 1008.4 |
| 20260505192647 | 55 | 276 | 1.7 | 6.1 | 0.00 | 0.11 | 0.00 | 34 | 1008.4 |
| 20260505192148 | 55 | 248 | 2.6 | 6.1 | 0.00 | 0.11 | 0.00 | 36 | 1008.4 |
| 20260505192136 | 55 | 198 | 5.2 | 6.1 | 0.00 | 0.11 | 0.00 | 35 | 1008.4 |
| 20260505191358 | 55 | 178 | 1.7 | 7.8 | 0.00 | 0.11 | 0.00 | 37 | 1008.7 |
| 20260505191246 | 55 | 14 | 1.7 | 7.8 | 0.00 | 0.11 | 0.00 | 34 | 1008.7 |
| 20260505190146 | 55 | 307 | 0.9 | 5.2 | 0.00 | 0.11 | 0.00 | 36 | 1008.7 |
| 20260505185903 | 55 | 284 | 3.5 | 7.8 | 0.00 | 0.11 | 0.00 | 37 | 1008.7 |
| 20260505185145 | 55 | 309 | 3.5 | 7.8 | 0.00 | 0.11 | 0.00 | 36 | 1008.7 |
| 20260505184644 | 55 | 311 | 3.5 | 6.1 | 0.00 | 0.11 | 0.00 | 39 | 1008.7 |
| 20260505184144 | 55 | 275 | 1.7 | 7.0 | 0.00 | 0.11 | 0.00 | 37 | 1008.7 |
| 20260505183906 | 55 | 254 | 2.6 | 7.0 | 0.00 | 0.11 | 0.00 | 37 | 1008.7 |
| 20260505183141 | 55 | 241 | 4.3 | 5.2 | 0.00 | 0.11 | 0.00 | 36 | 1008.7 |
| 20260505182907 | 55 | 167 | 1.7 | 7.0 | 0.00 | 0.11 | 0.00 | 35 | 1008.4 |
| 20260505182140 | 55 | 66 | 1.7 | 7.0 | 0.00 | 0.11 | 0.00 | 36 | 1008.4 |
| 20260505181640 | 54 | 284 | 0.0 | 7.0 | 0.00 | 0.11 | 0.00 | 39 | 1008.7 |
| 20260505181140 | 54 | 263 | 4.3 | 7.0 | 0.00 | 0.11 | 0.00 | 38 | 1008.4 |
| 20260505180639 | 54 | 262 | 0.0 | 6.1 | 0.00 | 0.11 | 0.00 | 35 | 1008.4 |
| 20260505180140 | 55 | 320 | 1.7 | 6.1 | 0.00 | 0.11 | 0.00 | 39 | 1008.7 |
| 20260505175639 | 55 | 276 | 4.3 | 6.1 | 0.00 | 0.11 | 0.00 | 40 | 1008.4 |
| 20260505175138 | 54 | 10 | 1.7 | 7.8 | 0.00 | 0.11 | 0.00 | 40 | 1008.4 |
| 20260505174636 | 54 | 58 | 1.7 | 8.7 | 0.00 | 0.11 | 0.00 | 39 | 1008.7 |
| 20260505174404 | 54 | 221 | 2.6 | 8.7 | 0.00 | 0.11 | 0.00 | 36 | 1008.4 |
| 20260505173635 | 54 | 182 | 2.6 | 7.0 | 0.00 | 0.11 | 0.00 | 37 | 1008.4 |
| 20260505173619 | 54 | 202 | 1.7 | 7.0 | 0.00 | 0.11 | 0.00 | 36 | 1008.4 |
| 20260505172636 | 54 | 177 | 3.5 | 6.1 | 0.00 | 0.11 | 0.00 | 39 | 1008.4 |
| 20260505172135 | 54 | 324 | 2.6 | 5.2 | 0.00 | 0.11 | 0.00 | 42 | 1008.4 |
| 20260505171632 | 54 | 46 | 1.7 | 5.2 | 0.00 | 0.11 | 0.00 | 44 | 1008.4 |
| 20260505171133 | 54 | 327 | 5.2 | 5.2 | 0.00 | 0.11 | 0.00 | 40 | 1008.4 |
| 20260505170633 | 54 | 152 | 4.3 | 5.2 | 0.00 | 0.11 | 0.00 | 40 | 1008.4 |
| 20260505170132 | 54 | 253 | 2.6 | 5.2 | 0.00 | 0.11 | 0.00 | 45 | 1008.0 |
| 20260505165630 | 54 | 306 | 0.9 | 7.8 | 0.00 | 0.11 | 0.00 | 44 | 1008.0 |
| 20260505165132 | 54 | 199 | 1.7 | 7.8 | 0.00 | 0.11 | 0.00 | 44 | 1008.4 |
| 20260505164629 | 53 | 24 | 2.6 | 7.8 | 0.00 | 0.11 | 0.00 | 42 | 1008.0 |
| 20260505164130 | 54 | 333 | 7.0 | 7.8 | 0.00 | 0.11 | 0.00 | 40 | 1008.4 |
| 20260505163628 | 53 | 41 | 2.6 | 7.8 | 0.00 | 0.11 | 0.00 | 41 | 1008.4 |
| 20260505163129 | 53 | 293 | 1.7 | 7.0 | 0.00 | 0.11 | 0.00 | 43 | 1008.7 |
| 20260505162628 | 53 | 297 | 5.2 | 7.8 | 0.00 | 0.11 | 0.00 | 41 | 1008.4 |
| 20260505162129 | 53 | 222 | 3.5 | 3.5 | 0.00 | 0.11 | 0.00 | 43 | 1008.4 |
| 20260505161627 | 52 | 203 | 1.7 | 3.5 | 0.00 | 0.11 | 0.00 | 44 | 1008.4 |
| 20260505161128 | 52 | 233 | 2.6 | 5.2 | 0.00 | 0.11 | 0.00 | 43 | 1008.0 |
| 20260505160627 | 52 | 298 | 0.9 | 5.2 | 0.00 | 0.11 | 0.00 | 41 | 1008.0 |
| 20260505160128 | 52 | 344 | 1.7 | 5.2 | 0.00 | 0.11 | 0.00 | 42 | 1008.4 |
| 20260505153125 | 52 | 55 | 3.5 | 7.0 | 0.00 | 0.11 | 0.00 | 41 | 1008.0 |
| 20260505152622 | 52 | 215 | 1.7 | 7.0 | 0.00 | 0.11 | 0.00 | 41 | 1008.0 |
| 20260505152121 | 52 | 224 | 3.5 | 6.1 | 0.00 | 0.11 | 0.00 | 41 | 1007.7 |
| 20260505151620 | 52 | 337 | 4.3 | 5.2 | 0.00 | 0.11 | 0.00 | 41 | 1008.0 |
| 20260505151122 | 52 | 165 | 3.5 | 6.1 | 0.00 | 0.11 | 0.00 | 41 | 1007.7 |
| 20260505150619 | 52 | 61 | 1.7 | 6.1 | 0.00 | 0.11 | 0.00 | 45 | 1008.0 |
| 20260505150119 | 51 | 267 | 1.7 | 4.3 | 0.00 | 0.11 | 0.00 | 47 | 1008.0 |
| 20260505140613 | 49 | 243 | 3.5 | 3.5 | 0.00 | 0.11 | 0.00 | 56 | 1008.0 |
| 20260505140338 | 49 | 45 | 0.0 | 2.6 | 0.00 | 0.11 | 0.00 | 56 | 1008.0 |
| 20260505130119 | 47 | 307 | 0.0 | 1.7 | 0.00 | 0.11 | 0.00 | 62 | 1008.4 |
| 20260505124829 | 47 | 55 | 0.0 | 1.7 | 0.00 | 0.11 | 0.00 | 66 | 1008.0 |
| 20260505124104 | 47 | 145 | 0.0 | 1.7 | 0.00 | 0.11 | 0.00 | 66 | 1008.0 |
| 20260505123604 | 47 | 248 | 0.0 | 1.7 | 0.00 | 0.11 | 0.00 | 66 | 1008.0 |
| 20260505123103 | 47 | 107 | 0.0 | 1.7 | 0.00 | 0.11 | 0.00 | 67 | 1008.0 |
| 20260505122602 | 47 | 138 | 1.7 | 1.7 | 0.00 | 0.11 | 0.00 | 67 | 1008.4 |
| 20260505122105 | 47 | 53 | 0.0 | 1.7 | 0.00 | 0.11 | 0.00 | 65 | 1008.0 |
| 20260505121826 | 47 | 79 | 0.0 | 1.7 | 0.00 | 0.11 | 0.00 | 64 | 1008.0 |
| 20260505121101 | 47 | 87 | 0.0 | 1.7 | 0.00 | 0.11 | 0.00 | 64 | 1008.4 |
| 20260505120600 | 47 | 261 | 0.0 | 1.7 | 0.00 | 0.11 | 0.00 | 65 | 1008.0 |
| 20260505120112 | 47 | 165 | 0.9 | 1.7 | 0.00 | 0.11 | 0.00 | 62 | 1008.0 |
| 20260505115600 | 47 | 132 | 1.7 | 2.6 | 0.00 | 0.11 | 0.00 | 62 | 1008.0 |
| 20260505115059 | 47 | 106 | 0.0 | 2.6 | 0.00 | 0.11 | 0.00 | 61 | 1008.0 |
| 20260505114558 | 47 | 10 | 0.0 | 1.7 | 0.00 | 0.11 | 0.00 | 60 | 1008.4 |
| 20260505114057 | 47 | 311 | 0.0 | 1.7 | 0.00 | 0.11 | 0.00 | 59 | 1008.0 |
| 20260505113600 | 47 | 332 | 0.0 | 1.7 | 0.00 | 0.11 | 0.00 | 58 | 1007.7 |
| 20260505113059 | 47 | 22 | 0.0 | 1.7 | 0.00 | 0.11 | 0.00 | 59 | 1007.4 |
| 20260505113047 | 47 | 76 | 0.9 | 4.3 | 0.00 | 0.11 | 0.00 | 58 | 1007.0 |
| 20260505112058 | 47 | 290 | 0.0 | 4.3 | 0.00 | 0.11 | 0.00 | 58 | 1006.7 |
| 20260505111556 | 47 | 55 | 1.7 | 3.5 | 0.00 | 0.11 | 0.00 | 57 | 1006.7 |
| 20260505111054 | 48 | 320 | 1.7 | 4.3 | 0.00 | 0.11 | 0.00 | 55 | 1007.4 |
| 20260505110606 | 48 | 1 | 1.7 | 4.3 | 0.00 | 0.11 | 0.00 | 54 | 1006.0 |
| 20260505110108 | 48 | 350 | 1.7 | 4.3 | 0.00 | 0.11 | 0.00 | 53 | 1006.3 |
| 20260505102050 | 49 | 320 | 1.7 | 3.5 | 0.00 | 0.11 | 0.00 | 54 | 1006.7 |
| 20260505101549 | 49 | 320 | 2.6 | 4.3 | 0.00 | 0.11 | 0.00 | 53 | 1006.3 |
| 20260505101049 | 49 | 286 | 1.7 | 4.3 | 0.00 | 0.11 | 0.00 | 53 | 1006.3 |
| 20260505100548 | 49 | 334 | 1.7 | 4.3 | 0.00 | 0.11 | 0.00 | 55 | 1005.6 |
| 20260505100046 | 50 | 4 | 0.9 | 4.3 | 0.00 | 0.11 | 0.00 | 55 | 1005.2 |
| 20260505095548 | 50 | 46 | 1.7 | 5.2 | 0.00 | 0.11 | 0.00 | 56 | 1005.2 |
| 20260505095046 | 50 | 25 | 1.7 | 5.2 | 0.00 | 0.11 | 0.00 | 56 | 1005.2 |
| 20260505094544 | 50 | 358 | 1.7 | 4.3 | 0.00 | 0.11 | 0.00 | 55 | 1005.6 |
| 20260505094046 | 50 | 20 | 1.7 | 4.3 | 0.00 | 0.11 | 0.00 | 54 | 1005.2 |
| 20260505093544 | 50 | 0 | 1.7 | 4.3 | 0.00 | 0.11 | 0.00 | 53 | 1005.6 |
| 20260505093045 | 51 | 14 | 2.6 | 4.3 | 0.00 | 0.11 | 0.00 | 54 | 1005.6 |
| 20260505093031 | 51 | 71 | 1.7 | 3.5 | 0.00 | 0.11 | 0.00 | 56 | 1005.6 |
| 20260505092048 | 51 | 23 | 0.0 | 3.5 | 0.00 | 0.11 | 0.00 | 54 | 1005.6 |
| 20260505092029 | 51 | 303 | 0.0 | 3.5 | 0.00 | 0.11 | 0.00 | 54 | 1005.2 |
| 20260505091042 | 51 | 311 | 0.9 | 4.3 | 0.00 | 0.11 | 0.00 | 54 | 1005.2 |
| 20260505090553 | 51 | 33 | 1.7 | 7.0 | 0.00 | 0.11 | 0.00 | 53 | 1005.2 |
| 20260505090041 | 51 | 32 | 1.7 | 7.0 | 0.00 | 0.11 | 0.00 | 55 | 1004.9 |
| 20260505085542 | 51 | 50 | 2.6 | 4.3 | 0.00 | 0.11 | 0.00 | 57 | 1005.2 |
| 20260505085041 | 52 | 345 | 1.7 | 4.3 | 0.00 | 0.11 | 0.00 | 57 | 1004.9 |
| 20260505084539 | 52 | 309 | 2.6 | 3.5 | 0.00 | 0.11 | 0.00 | 56 | 1004.9 |
| 20260505084040 | 52 | 358 | 2.6 | 3.5 | 0.00 | 0.11 | 0.00 | 55 | 1004.6 |
| 20260505083539 | 53 | 15 | 1.7 | 4.3 | 0.00 | 0.11 | 0.00 | 56 | 1004.6 |
| 20260505083040 | 53 | 336 | 1.7 | 5.2 | 0.00 | 0.11 | 0.00 | 55 | 1004.2 |
| 20260505082538 | 53 | 348 | 1.7 | 5.2 | 0.00 | 0.11 | 0.00 | 54 | 1003.9 |
| 20260505082301 | 52 | 23 | 0.0 | 4.3 | 0.00 | 0.11 | 0.00 | 56 | 1003.9 |
| 20260505081535 | 52 | 346 | 1.7 | 3.5 | 0.00 | 0.11 | 0.00 | 58 | 1003.9 |
| 20260505081043 | 52 | 71 | 1.7 | 3.5 | 0.00 | 0.11 | 0.00 | 58 | 1003.5 |
| 20260505080535 | 52 | 326 | 3.5 | 3.5 | 0.00 | 0.11 | 0.00 | 57 | 1003.5 |
| 20260505080034 | 52 | 279 | 0.9 | 2.6 | 0.00 | 0.11 | 0.00 | 57 | 1003.2 |
| 20260505075756 | 52 | 339 | 0.9 | 2.6 | 0.00 | 0.11 | 0.00 | 58 | 1003.2 |
| 20260505075034 | 52 | 48 | 1.7 | 2.6 | 0.00 | 0.11 | 0.00 | 58 | 1003.2 |
| 20260505074801 | 52 | 327 | 1.7 | 2.6 | 0.00 | 0.11 | 0.00 | 59 | 1003.2 |
| 20260505074033 | 52 | 332 | 1.7 | 2.6 | 0.00 | 0.11 | 0.00 | 57 | 1002.9 |
| 20260505073533 | 52 | 351 | 0.9 | 1.7 | 0.00 | 0.11 | 0.00 | 58 | 1002.9 |
| 20260505073032 | 52 | 3 | 0.9 | 1.7 | 0.00 | 0.11 | 0.00 | 59 | 1002.9 |
| 20260505072531 | 52 | 5 | 0.0 | 1.7 | 0.00 | 0.11 | 0.00 | 60 | 1003.2 |
| 20260505072032 | 53 | 233 | 0.0 | 2.6 | 0.00 | 0.11 | 0.00 | 58 | 1003.2 |
| 20260505072020 | 53 | 154 | 0.0 | 2.6 | 0.00 | 0.11 | 0.00 | 58 | 1003.2 |
| 20260505071030 | 53 | 130 | 0.0 | 1.7 | 0.00 | 0.11 | 0.00 | 57 | 1002.9 |